Kenai, AK

11:15 AM AKST on November 17, 2017 (GMT -0900)
Kenai Municipal

Weather History for PAEN - December, 2011

Change the Weather History Date:

Monday, December 26, 2011

  Actual Average Record
Temperature  
Mean Temperature 14 °F -  
Max Temperature 19 °F 25 °F 44 °F (1982)
Min Temperature 8 °F 9 °F -40 °F (1961)
Degree Days  
Heating Degree Days 52    
Moisture  
Dew Point 8 °F    
Average Humidity 81    
Maximum Humidity 92    
Minimum Humidity 54    
Precipitation  
Precipitation 0.00 in - - ()
Sea Level Pressure  
Sea Level Pressure 29.21 in    
Wind  
Wind Speed 13 mph (NNE)    
Max Wind Speed 22 mph    
Max Gust Speed 25 mph    
Visibility 10 miles    
Events      
Averages and records for this station are not official NWS values.
T = Trace of Precipitation, MM = Missing Value Source: NWS Daily Summary

Daily Weather History Graph

Daily Weather History Graph

Search for Another Location

Airport or City:

Trip Planner

Search our weather history database for the weather conditions in past years. The results will help you decide how hot, cold, wet, or windy it might be!

Date:

Astronomy

Dec. 26, 2011 Rise Set
Actual Time 10:14 AM AKST 3:57 PM AKST
Civil Twilight 9:14 AM AKST 4:56 PM AKST
Nautical Twilight 8:16 AM AKST 5:54 PM AKST
Astronomical Twilight 7:23 AM AKST 6:47 PM AKST
Moon 11:01 AM AKST (12/26) 7:21 PM AKST (12/26)
Length of Visible Light 7h 42m
Length of Day
5h 43m
Waxing Crescent, 6% of the Moon is Illuminated
Dec 26
Waxing Crescent
Dec 31
First Quarter
Jan 8
Full
Jan 16
Last Quarter
Jan 22
New

Hourly Weather History & Observations

Time (AKST) Temp. Windchill Dew Point Humidity Pressure Visibility Wind Dir Wind Speed Gust Speed Precip Events Conditions
12:07 AM 8.6 °F -7.0 °F 6.8 °F 92% 29.50 in 10.0 mi NNE 12.7 mph - N/A   Mostly Cloudy
12:30 AM 8.6 °F -8.3 °F 6.8 °F 92% 29.49 in 10.0 mi NNE 15.0 mph - N/A   Mostly Cloudy
12:53 AM 10.0 °F -7.1 °F 7.0 °F 87% 29.50 in 10.0 mi NNE 16.1 mph - N/A   Partly Cloudy
1:14 AM 10.4 °F -7.2 °F 8.6 °F 92% 29.48 in 10.0 mi NNE 17.3 mph - N/A   Mostly Cloudy
1:21 AM 10.4 °F -7.7 °F 8.6 °F 92% 29.48 in 10.0 mi NNE 18.4 mph - N/A   Scattered Clouds
1:53 AM 12.0 °F -5.1 °F 9.0 °F 88% 29.48 in 10.0 mi NNE 17.3 mph - N/A   Overcast
2:05 AM 12.2 °F -5.3 °F 10.4 °F 92% 29.46 in 9.0 mi NNE 18.4 mph 25.3 mph N/A   Overcast
3:23 AM 10.4 °F -7.7 °F 6.8 °F 85% 29.44 in 8.0 mi North 18.4 mph - N/A   Mostly Cloudy
3:53 AM 9.0 °F -7.9 °F 6.1 °F 88% 29.45 in 10.0 mi NNE 15.0 mph - N/A   Partly Cloudy
4:53 AM 9.0 °F -9.0 °F 6.1 °F 88% 29.41 in 10.0 mi North 17.3 mph - N/A   Clear
5:53 AM 12.0 °F -3.4 °F 8.1 °F 84% 29.37 in 10.0 mi NNE 13.8 mph - N/A   Clear
6:53 AM 14.0 °F -1.4 °F 9.0 °F 80% 29.34 in 10.0 mi NNE 15.0 mph - N/A   Overcast
7:53 AM 15.1 °F -1.6 °F 10.0 °F 80% 29.31 in 10.0 mi NE 18.4 mph - N/A   Overcast
8:53 AM 16.0 °F 1.1 °F 10.0 °F 77% 29.28 in 10.0 mi NNE 15.0 mph - N/A   Overcast
9:53 AM 18.0 °F 2.6 °F 9.0 °F 68% 29.24 in 10.0 mi NNE 17.3 mph - N/A   Overcast
10:53 AM 18.0 °F 0.9 °F 9.0 °F 68% 29.21 in 10.0 mi NNE 21.9 mph - N/A   Overcast
11:53 AM 18.0 °F 2.2 °F 8.1 °F 65% 29.18 in 10.0 mi NNE 18.4 mph - N/A   Overcast
12:53 PM 19.0 °F 6.1 °F 6.1 °F 57% 29.13 in 10.0 mi NNE 12.7 mph - N/A   Overcast
1:53 PM 19.0 °F 5.6 °F 5.0 °F 54% 29.10 in 10.0 mi NNE 13.8 mph - N/A   Overcast
2:53 PM 14.0 °F 2.9 °F 9.0 °F 80% 29.07 in 10.0 mi SE 8.1 mph - N/A   Overcast
3:53 PM 14.0 °F 8.2 °F 10.0 °F 84% 29.03 in 10.0 mi SSE 3.5 mph - N/A   Overcast
4:53 PM 12.0 °F 2.7 °F 8.1 °F 84% 29.01 in 10.0 mi SW 5.8 mph - N/A   Scattered Clouds
5:53 PM 16.0 °F 10.4 °F 10.9 °F 81% 28.98 in 10.0 mi WSW 3.5 mph - N/A   Overcast
6:53 PM 17.1 °F 11.7 °F 10.9 °F 77% 28.97 in 10.0 mi WSW 3.5 mph - N/A   Scattered Clouds
7:10 PM 15.8 °F - 10.4 °F 79% 28.96 in 10.0 mi Calm Calm - N/A   Mostly Cloudy
7:39 PM 15.8 °F - 10.4 °F 79% 28.95 in 10.0 mi Calm Calm - N/A   Scattered Clouds
7:53 PM 12.9 °F - 10.0 °F 88% 28.96 in 10.0 mi Calm Calm - N/A   Clear
8:53 PM 15.1 °F - 8.1 °F 74% 28.95 in 10.0 mi Calm Calm - N/A   Clear
9:53 PM 12.0 °F - 9.0 °F 88% 28.94 in 10.0 mi Calm Calm - N/A   Clear
10:53 PM 10.0 °F - 7.0 °F 87% 28.94 in 10.0 mi Calm Calm - N/A   Clear
11:53 PM 8.1 °F 1.4 °F 6.1 °F 92% 28.94 in 10.0 mi SSW 3.5 mph - N/A   Partly Cloudy